Date,TemperatureHighF,TemperatureAvgF,TemperatureLowF,DewpointHighF,DewpointAvgF,DewpointLowF,HumidityHigh,HumidityAvg,HumidityLow,PressureMaxIn,PressureMinIn,WindSpeedMaxMPH,WindSpeedAvgMPH,GustSpeedMaxMPH,PrecipitationSumIn
2013-1-1,16.8,8.6,-4.2,14.3,5.4,-7.6,93,86,81,30.38,30.14,16,4,16,0.00
2013-1-2,29.2,19.8,8.0,26.5,17.4,5.7,96,90,81,30.22,30.05,24,6,24,0.00
2013-1-3,23.5,12.6,5.2,21.8,9.4,1.7,93,87,83,30.42,30.22,25,10,25,0.00
2013-1-4,25.6,18.4,13.4,18.5,13.8,9.9,88,82,72,30.28,30.17,21,6,21,0.00
2013-1-5,23.9,16.7,10.0,19.4,13.1,7.0,90,86,79,30.19,29.97,28,9,28,0.00
2013-1-6,21.7,15.1,8.1,18.0,11.3,5.4,90,85,78,30.35,30.11,18,6,18,0.00
2013-1-7,32.4,27.0,18.3,27.2,23.1,16.5,95,85,78,30.11,30.00,22,5,22,0.00
2013-1-8,31.5,23.5,11.3,27.9,21.2,9.2,95,91,85,30.10,29.80,24,6,24,0.00
2013-1-9,39.7,31.4,24.8,29.6,26.9,21.1,92,84,62,30.42,30.10,21,8,21,0.00
2013-1-10,36.5,32.4,28.7,32.7,28.4,23.9,98,85,69,30.34,29.70,23,8,23,0.08
2013-1-11,39.1,34.9,25.3,38.8,34.5,24.1,99,98,95,29.70,29.40,26,8,26,0.01
2013-1-12,25.3,11.5,4.8,23.9,7.0,0.2,95,82,76,30.18,29.55,37,14,37,0.00
2013-1-13,11.5,6.2,1.5,4.7,1.5,-2.5,92,81,68,30.39,30.16,21,8,21,0.00
2013-1-14,22.9,13.3,5.4,14.9,8.8,2.4,89,82,70,30.52,30.39,12,4,12,0.00
2013-1-15,30.7,21.1,13.4,18.8,14.6,9.6,95,77,48,30.39,29.97,26,7,26,0.00
2013-1-16,41.4,27.1,10.9,35.3,22.3,1.4,93,82,65,30.31,29.83,30,12,30,0.00
2013-1-17,31.2,19.8,7.0,24.2,12.8,-2.6,91,74,56,30.48,30.29,19,7,19,0.00
2013-1-18,45.7,35.8,25.0,34.6,29.7,22.7,93,79,60,30.29,29.84,24,8,24,0.00
2013-1-19,43.2,29.8,5.7,33.6,23.1,-1.2,89,76,60,30.35,29.78,45,15,45,0.00
2013-1-20,10.0,5.2,0.7,4.7,0.2,-6.1,95,79,72,30.50,30.33,24,9,24,0.00
2013-1-21,3.7,-2.9,-9.4,-3.9,-9.3,-15.7,86,73,67,30.52,30.44,29,11,29,0.00
2013-1-22,13.6,5.7,-3.1,9.1,-1.1,-8.6,82,73,63,30.52,30.31,14,4,14,0.00
2013-1-23,16.6,8.7,-5.1,11.8,2.9,-11.5,87,77,65,30.68,30.24,34,12,34,0.00
2013-1-24,15.0,4.2,-5.7,6.4,-3.9,-12.4,74,69,61,30.71,30.24,24,8,24,0.00
2013-1-25,26.5,15.0,4.4,20.4,8.3,-1.8,85,75,62,30.38,30.14,34,11,34,0.00
2013-1-26,28.5,15.5,1.5,17.9,7.6,-3.0,83,71,60,30.39,30.13,23,8,23,0.00
2013-1-27,31.7,30.2,24.8,30.9,26.8,16.3,97,88,68,30.13,29.79,19,4,19,0.01
2013-1-28,33.0,31.5,30.0,32.5,31.1,29.4,100,98,97,29.90,29.59,13,2,13,0.01
2013-1-29,32.7,28.4,20.9,32.4,27.5,19.4,99,96,93,29.79,29.58,34,12,34,0.01
2013-1-30,21.2,14.5,4.3,19.7,10.8,0.2,94,85,78,29.93,29.72,40,19,40,0.00
2013-1-31,4.2,-2.5,-8.0,0.2,-8.1,-13.5,83,77,70,30.47,29.93,36,16,36,0.00
2013-2-1,19.1,5.1,-8.0,14.7,-0.5,-13.1,86,77,65,30.48,30.10,22,6,22,0.00
2013-2-2,30.4,15.4,5.4,27.5,12.0,2.0,95,86,78,30.27,30.03,33,10,33,0.00
2013-2-3,33.2,19.3,9.6,26.9,15.0,6.2,91,84,70,30.20,29.86,32,8,32,0.00
2013-2-4,22.4,16.0,8.2,19.3,12.1,5.3,91,84,72,30.11,29.87,22,7,22,0.00
2013-2-5,36.7,26.7,17.0,30.5,23.5,14.4,95,88,75,30.14,29.80,25,8,25,0.00
2013-2-6,43.0,30.7,16.0,34.7,26.5,13.7,92,85,70,30.14,29.88,27,6,27,0.00
2013-2-7,34.5,24.7,21.4,32.2,23.3,19.8,96,95,91,30.31,29.95,24,11,24,0.00
2013-2-8,29.9,23.6,19.8,23.6,20.3,17.1,94,87,76,30.40,30.23,25,7,25,0.00
2013-2-9,39.7,29.3,23.5,33.4,27.1,22.0,96,91,78,30.24,29.82,28,12,28,0.00
2013-2-10,35.6,31.3,25.8,35.1,30.5,24.4,98,97,93,29.83,29.24,37,11,37,0.11
2013-2-11,26.6,22.2,18.6,24.8,18.5,14.8,94,86,80,30.16,29.55,40,17,40,0.00
2013-2-12,37.7,26.6,17.9,29.4,22.2,15.7,92,83,68,30.15,29.90,18,7,18,0.00
2013-2-13,43.0,32.6,22.3,35.0,28.2,20.1,92,84,70,29.90,29.67,30,7,30,0.00
2013-2-14,34.6,25.3,11.8,30.8,21.5,4.5,94,86,71,30.30,29.69,30,14,30,0.00
2013-2-15,18.5,12.9,8.8,11.9,8.0,3.1,87,81,73,30.43,30.30,21,8,21,0.00
2013-2-16,32.4,19.4,9.1,22.6,15.2,6.8,94,84,60,30.38,30.11,13,4,13,0.00
2013-2-17,40.7,29.8,18.4,32.1,24.8,16.0,95,82,69,30.11,29.60,27,10,27,0.00
2013-2-18,35.9,23.7,4.6,32.1,19.4,0.3,89,83,74,30.02,29.57,41,17,41,0.00
2013-2-19,8.9,3.3,-4.1,2.3,-2.1,-8.8,86,78,70,30.52,30.01,36,17,36,0.00
2013-2-20,19.2,6.6,-5.0,9.5,0.1,-9.3,85,75,57,30.55,30.42,18,6,18,0.00
2013-2-21,23.8,16.2,9.8,15.4,10.7,6.5,92,80,60,30.45,30.03,25,8,25,0.00
2013-2-22,22.1,17.7,13.6,18.7,15.2,11.4,92,90,83,30.04,29.95,20,8,20,0.00
2013-2-23,25.2,12.7,5.0,19.0,10.0,2.7,100,89,77,30.01,29.94,10,3,10,0.00
2013-2-24,25.9,17.5,7.7,22.2,15.2,5.3,100,90,85,30.17,29.99,9,2,9,0.00
2013-2-25,29.2,23.4,19.9,26.2,21.7,18.5,96,93,84,30.17,30.05,15,4,15,0.00
2013-2-26,29.7,24.5,21.4,25.5,22.5,20.1,96,92,84,30.08,29.90,23,10,23,0.00
2013-2-27,33.1,23.5,19.0,25.3,19.9,16.4,99,86,66,30.11,29.93,37,18,37,0.00
2013-2-28,25.4,22.8,19.8,22.2,20.4,18.1,94,91,87,30.27,30.11,22,11,22,0.00
2013-3-1,23.1,19.8,13.4,20.6,16.1,10.8,93,86,76,30.43,30.26,17,8,17,0.00
2013-3-2,27.8,18.5,7.4,21.3,14.6,5.1,93,85,69,30.42,30.18,16,3,16,0.00
2013-3-3,32.0,25.2,18.4,26.0,21.6,16.4,93,86,76,30.18,29.88,27,12,27,0.00
2013-3-4,28.2,26.5,25.1,27.4,25.4,23.3,100,96,93,30.03,29.81,26,8,26,0.00
2013-3-5,28.2,24.0,20.7,27.5,21.3,18.3,98,89,84,30.39,29.99,35,15,35,0.00
2013-3-6,25.0,20.7,17.4,20.6,18.1,15.7,94,90,82,30.49,30.37,20,7,20,0.01
2013-3-7,30.4,22.4,13.7,26.0,19.9,12.1,94,90,82,30.40,30.25,23,10,23,0.00
2013-3-8,36.9,28.8,19.2,33.2,26.6,17.4,96,91,85,30.31,30.03,23,9,23,0.26
2013-3-9,39.1,35.0,31.2,38.6,34.3,30.2,98,97,95,30.03,29.66,28,9,28,0.65
2013-3-10,31.5,25.8,20.8,30.5,24.8,19.6,97,96,95,29.96,29.75,35,18,35,0.00
2013-3-11,28.4,23.3,19.1,22.7,19.5,17.2,100,86,74,29.98,29.87,25,13,25,0.00
2013-3-12,28.5,24.4,19.8,25.4,20.4,15.0,93,85,74,30.32,29.97,34,16,34,0.00
2013-3-13,27.8,21.0,13.4,21.8,16.7,10.8,90,83,72,30.48,30.29,24,6,24,0.00
2013-3-14,47.0,34.7,23.9,40.8,30.3,20.6,96,84,76,30.29,30.05,16,5,16,0.00
2013-3-15,38.5,34.8,31.4,36.1,33.2,30.6,97,94,86,30.05,29.78,18,6,18,0.00
2013-3-16,31.4,22.9,15.6,30.7,20.1,11.1,98,89,80,30.29,29.89,26,12,26,0.00
2013-3-17,31.1,21.2,10.9,27.9,16.8,6.9,90,83,75,30.30,29.81,30,12,30,0.00
2013-3-18,32.0,20.5,12.2,31.2,15.9,6.5,97,82,70,30.05,29.70,44,18,44,0.01
2013-3-19,27.9,16.0,7.3,20.9,9.6,2.7,84,76,63,30.38,30.02,28,12,28,0.00
2013-3-20,21.7,14.5,7.8,10.4,6.6,2.8,82,71,57,30.42,30.23,31,14,31,0.00
2013-3-21,28.2,17.3,6.5,17.1,10.0,2.4,85,73,60,30.24,30.07,15,4,15,0.00
2013-3-22,32.7,23.0,13.1,21.8,16.6,10.7,92,77,56,30.15,30.08,11,2,11,0.00
2013-3-23,31.5,26.4,23.6,23.1,20.2,17.1,91,78,62,30.22,30.11,16,5,16,0.00
2013-3-24,29.0,24.6,20.5,26.4,21.6,17.5,99,88,79,30.17,30.03,28,13,28,0.00
2013-3-25,31.7,25.7,21.3,23.4,21.1,17.8,98,83,66,30.36,30.10,26,15,26,0.00
2013-3-26,37.7,26.8,16.0,23.4,19.5,13.1,89,75,53,30.39,30.31,16,5,16,0.00
2013-3-27,40.3,31.9,24.2,30.4,26.0,21.2,90,79,62,30.36,30.29,18,6,18,0.00
2013-3-28,47.7,37.4,28.4,39.2,32.3,25.4,92,82,67,30.33,30.25,17,7,17,0.00
2013-3-29,56.4,43.7,33.0,44.1,37.5,30.7,92,80,62,30.27,30.03,22,8,22,0.00
2013-3-30,57.2,47.8,35.3,46.8,40.8,34.0,95,78,56,30.03,29.87,29,8,29,0.00
2013-3-31,36.7,31.8,22.3,34.0,25.9,15.0,97,80,52,30.19,29.89,32,13,32,0.01
2013-4-1,33.1,25.0,17.5,19.7,15.3,11.3,82,67,47,30.37,30.19,26,11,26,0.00
2013-4-2,40.5,29.2,19.2,25.4,21.0,16.8,92,73,49,30.40,30.33,16,3,16,0.00
2013-4-3,50.4,37.0,25.0,33.4,27.4,20.7,85,70,50,30.40,30.15,28,9,28,0.00
2013-4-4,49.1,39.9,29.9,32.5,29.7,26.0,86,68,47,30.20,30.09,22,9,22,0.01
2013-4-5,50.2,38.2,27.2,35.5,28.8,23.8,92,70,51,30.22,29.76,32,11,32,0.00
2013-4-6,54.4,46.3,33.6,45.4,39.8,31.4,92,78,68,29.80,29.51,26,11,27,0.04
2013-4-7,50.7,38.6,29.6,45.2,35.8,28.6,97,90,74,29.95,29.68,22,7,22,0.08
2013-4-8,57.7,46.0,36.2,51.2,43.8,35.3,98,92,77,29.93,29.63,28,7,28,0.02
2013-4-9,40.6,34.3,30.5,39.8,33.2,29.0,98,96,94,30.11,29.79,38,15,38,0.93
2013-4-10,32.6,30.8,29.2,31.8,29.6,27.9,97,95,94,30.07,29.83,33,8,33,0.00
2013-4-11,34.1,32.3,30.4,33.1,31.5,29.8,98,97,96,29.83,29.63,16,4,16,1.12
2013-4-12,31.7,29.6,27.0,30.7,27.0,24.1,97,90,82,29.96,29.68,23,12,23,0.07
2013-4-13,38.6,30.9,23.6,32.6,27.1,21.9,95,86,72,30.01,29.85,20,7,20,0.17
2013-4-14,55.2,39.6,33.9,52.6,37.1,31.8,96,91,78,29.85,29.33,34,13,34,0.04
2013-4-15,38.1,33.9,29.6,32.2,28.1,24.1,87,79,71,30.10,29.58,32,14,32,0.00
2013-4-16,42.5,35.5,29.8,31.9,29.3,26.9,91,79,55,30.32,30.08,18,8,18,0.00
2013-4-17,36.6,34.7,32.7,35.6,32.4,29.4,96,91,82,30.30,29.88,26,10,26,0.58
2013-4-18,33.3,30.7,28.5,32.2,29.9,27.8,98,97,95,29.90,29.66,35,17,35,0.08
2013-4-19,33.2,28.2,23.0,27.8,23.6,20.1,97,83,71,30.12,29.72,32,16,32,0.00
2013-4-20,39.9,30.9,20.9,30.6,23.2,16.8,89,74,54,30.32,30.12,19,7,19,0.00
2013-4-21,58.1,43.5,35.4,48.2,37.8,30.1,93,81,56,30.26,30.02,29,10,29,0.03
2013-4-22,37.1,33.0,28.5,34.8,31.8,27.8,98,95,90,30.24,30.07,30,13,30,0.15
2013-4-23,32.7,27.4,22.9,27.9,22.9,19.3,97,84,60,30.26,30.18,29,14,29,0.04
2013-4-24,50.5,35.5,25.5,38.1,27.9,22.3,89,75,45,30.18,29.99,38,10,38,0.00
2013-4-25,59.8,42.2,25.7,38.3,30.0,21.3,91,64,39,30.26,30.02,24,6,24,0.00
2013-4-26,69.9,57.1,45.9,42.0,38.1,31.4,76,52,26,30.13,29.98,23,8,23,0.00
2013-4-27,71.0,57.1,39.7,46.7,41.0,34.8,86,58,36,30.15,29.89,20,4,20,0.00
2013-4-28,81.2,62.3,47.6,53.2,47.0,43.9,90,62,28,29.90,29.62,26,9,26,0.04
2013-4-29,75.2,60.0,43.2,56.0,48.9,38.6,92,69,42,29.79,29.44,18,7,18,0.08
2013-4-30,66.0,61.4,54.6,58.3,43.5,28.4,84,55,25,29.94,29.40,30,10,30,0.00
2013-5-1,54.1,36.1,30.0,40.8,33.2,28.9,97,90,52,30.49,29.94,28,13,28,0.78
2013-5-2,44.9,37.8,32.8,30.6,28.4,24.6,85,70,50,30.58,30.43,37,16,37,0.00
2013-5-3,40.7,34.7,28.9,34.1,28.3,24.2,93,78,60,30.44,30.12,30,13,30,0.01
2013-5-4,40.1,35.8,32.0,39.1,34.4,30.1,100,95,89,30.20,30.07,26,12,26,0.15
2013-5-5,50.0,44.1,38.7,46.9,42.3,37.9,98,94,88,30.20,30.12,17,7,17,0.07
2013-5-6,66.1,53.8,43.5,53.2,47.6,41.8,95,81,61,30.15,30.03,11,4,11,0.00
2013-5-7,72.8,60.5,45.8,53.1,47.5,44.1,96,66,38,30.07,29.93,14,3,14,0.00
2013-5-8,64.2,58.1,54.3,57.2,54.0,47.8,97,87,68,29.95,29.90,14,4,14,0.14
2013-5-9,59.2,54.8,46.6,57.0,52.8,43.8,99,93,83,30.03,29.88,27,8,27,0.01
2013-5-10,65.7,52.0,39.3,45.0,38.3,31.6,90,62,31,30.09,29.96,23,8,23,0.00
2013-5-11,55.7,46.2,38.9,44.2,26.6,16.5,78,49,26,30.24,29.99,42,19,42,0.00
2013-5-12,57.1,42.6,33.1,25.2,21.9,16.0,64,46,22,30.28,30.17,21,7,21,0.00
2013-5-15,76.8,67.0,56.2,49.4,44.7,39.1,64,46,30,29.89,29.71,18,6,0,0.00
2013-5-16,83.2,68.0,54.8,60.8,48.1,38.6,95,56,21,29.87,29.72,16,4,0,0.23
2013-5-17,80.5,68.0,59.8,67.4,61.8,58.7,96,82,55,29.84,29.78,17,8,0,0.33
2013-5-18,82.3,71.9,61.9,64.9,61.5,58.8,90,72,49,29.87,29.67,15,8,0,0.00
2013-5-19,70.9,66.1,61.2,64.2,62.2,59.1,95,87,76,29.69,29.46,13,6,0,0.16
2013-5-20,69.5,61.9,55.4,59.5,56.4,53.6,95,83,57,29.53,29.43,17,8,0,0.01
2013-5-21,60.8,55.9,52.6,55.2,51.3,48.7,95,85,71,29.64,29.46,17,6,17,0.00
2013-5-22,54.3,49.8,46.2,52.8,48.2,44.8,97,94,91,29.95,29.63,24,10,24,0.10
2013-5-23,64.5,54.6,45.7,47.4,41.0,30.0,94,64,29,30.29,29.96,25,9,25,0.00
2013-5-24,71.8,56.4,43.4,53.2,41.6,37.1,79,60,37,30.32,30.11,27,8,27,0.10
2013-5-25,58.9,53.7,48.6,53.6,49.8,47.8,97,87,72,30.12,30.05,19,14,0,0.00
2013-5-26,56.4,51.4,48.2,54.5,50.2,47.4,97,96,93,30.13,29.86,23,11,0,0.93
2013-5-27,57.3,55.1,52.1,56.7,54.5,51.3,99,98,96,29.96,29.73,17,6,17,0.53
2013-5-28,69.2,60.3,55.7,61.7,58.4,55.4,99,94,76,29.75,29.64,15,4,15,0.03
2013-5-29,74.6,65.9,56.5,67.8,63.0,55.7,99,91,75,29.74,29.53,25,8,25,0.33
2013-5-30,70.5,65.5,60.9,63.1,61.3,53.6,95,87,73,29.57,29.39,43,10,43,0.06
2013-5-31,73.0,64.0,56.5,55.2,51.9,48.2,86,67,45,29.56,29.48,35,11,35,0.01
2013-6-1,61.1,55.6,50.6,57.7,51.5,45.6,97,86,77,29.97,29.53,32,11,32,0.01
2013-6-2,67.4,56.3,49.2,47.3,42.0,35.3,92,62,32,30.09,29.97,22,6,22,0.00
2013-6-3,70.3,60.4,46.7,49.5,45.6,40.9,86,60,42,30.03,29.85,33,8,33,0.00
2013-6-4,63.1,57.5,55.6,56.9,53.8,49.3,97,88,62,30.00,29.88,28,9,28,0.54
2013-6-5,64.1,58.6,54.0,56.1,52.4,48.6,98,81,63,30.01,29.92,19,6,19,0.00
2013-6-6,59.6,56.3,50.2,53.7,50.8,47.9,96,82,70,30.01,29.92,16,6,16,0.00
2013-6-7,66.4,56.9,47.5,51.4,49.0,45.9,97,77,53,30.04,29.89,10,3,10,0.00
2013-6-8,59.1,56.8,53.7,56.9,53.3,49.0,96,88,77,29.89,29.71,30,10,30,1.08
2013-6-9,68.3,62.3,57.8,61.7,59.1,56.1,98,90,75,29.77,29.58,24,6,24,0.08
2013-6-10,73.1,64.9,58.5,63.2,60.4,57.7,98,86,68,29.85,29.77,14,5,14,0.00
2013-6-11,86.8,74.2,63.2,68.4,65.0,61.1,94,75,48,29.83,29.68,23,6,23,0.00
2013-6-12,74.1,65.8,59.5,70.4,62.7,55.1,97,90,75,29.95,29.55,36,11,36,0.14
2013-6-13,78.0,66.9,55.5,56.8,54.1,51.6,90,66,43,30.08,29.95,21,6,21,0.00
2013-6-14,76.0,68.6,63.0,65.6,61.3,56.6,93,78,63,30.03,29.76,29,9,29,0.05
2013-6-15,82.0,70.4,64.5,66.9,63.5,58.5,94,80,47,29.94,29.79,20,4,20,0.04
2013-6-16,83.5,72.4,59.9,61.3,53.2,43.9,92,56,26,29.93,29.85,22,4,22,0.00
2013-6-17,82.5,72.3,63.4,58.1,53.7,46.9,78,55,30,29.95,29.87,29,7,29,0.00
2013-6-18,79.7,70.0,60.3,58.9,55.6,53.2,90,62,41,30.01,29.93,18,4,18,0.00
2013-6-19,84.0,74.0,62.4,63.7,59.1,52.7,83,62,39,29.98,29.84,25,7,25,0.00
2013-6-20,87.3,77.6,67.3,69.0,66.3,63.1,87,69,52,29.91,29.77,33,10,33,0.00
2013-6-21,88.6,77.3,63.1,74.3,69.3,59.8,92,77,54,29.85,29.72,34,9,34,0.00
2013-6-22,78.4,70.4,62.7,70.2,65.2,60.9,96,84,71,29.97,29.71,46,6,46,0.97
2013-6-23,80.0,76.0,70.2,68.3,65.9,64.0,85,72,59,29.85,29.67,15,5,17,0.03
2013-6-24,78.3,69.9,64.7,69.7,65.5,61.4,95,86,66,29.86,29.71,25,5,25,0.18
2013-6-25,86.1,76.0,67.1,72.4,68.3,65.0,98,79,52,29.74,29.62,20,6,20,0.00
2013-6-26,85.8,78.8,71.7,73.1,68.3,60.9,97,73,45,29.77,29.59,27,7,27,0.00
2013-6-27,84.5,76.3,68.3,67.3,61.9,55.7,83,63,38,29.88,29.79,17,7,0,0.00
2013-6-28,79.9,73.5,65.3,60.5,56.6,52.1,74,57,40,29.86,29.78,29,16,0,0.00
2013-6-29,75.7,68.1,62.6,61.6,57.3,49.6,92,70,41,29.93,29.76,33,11,33,0.06
2013-6-30,76.7,67.4,58.1,56.5,51.5,44.6,88,60,33,30.09,29.93,20,5,20,0.00
2013-7-1,82.3,71.0,56.9,59.2,54.1,48.0,89,59,31,30.16,30.09,17,4,17,0.00
2013-7-2,81.5,72.0,60.9,61.8,56.4,51.4,86,60,39,30.11,30.00,14,3,14,0.00
2013-7-3,83.8,72.1,61.0,60.2,56.6,52.3,90,61,36,30.02,29.89,12,2,12,0.00
2013-7-4,85.2,74.3,61.9,59.8,57.0,53.4,82,57,35,29.91,29.81,25,7,25,0.00
2013-7-5,86.8,75.7,66.0,64.5,60.6,56.3,79,60,40,29.84,29.75,26,7,26,0.01
2013-7-6,88.7,78.1,69.8,68.4,64.2,59.9,73,63,46,29.80,29.72,25,7,25,0.00
2013-7-7,89.2,78.2,68.8,73.4,66.9,-99.9,92,70,51,29.85,29.76,23,4,23,0.14
2013-7-8,89.0,77.8,68.1,72.6,69.0,66.0,94,76,50,29.93,29.83,11,3,11,0.00
2013-7-9,86.2,77.6,66.1,73.8,69.6,63.4,94,77,56,29.90,29.76,35,8,35,0.10
2013-7-10,79.6,70.6,62.9,67.1,57.4,52.3,87,65,42,30.04,29.90,14,6,23,0.00
2013-7-11,83.3,73.1,62.0,60.9,58.2,56.0,83,61,43,30.07,29.92,12,7,21,0.00
2013-7-12,87.4,76.7,65.8,65.9,62.2,57.7,76,62,47,29.95,29.82,15,10,29,0.00
2013-7-13,83.0,74.2,68.1,69.6,65.0,61.6,87,73,62,29.98,29.86,18,9,27,0.15
2013-7-14,84.7,75.1,67.1,66.9,62.5,56.6,83,67,41,30.12,29.96,12,7,22,0.00
2013-7-15,85.5,76.1,65.8,70.7,64.9,60.1,86,70,47,30.17,30.07,10,5,19,0.00
2013-7-16,88.3,79.6,69.8,70.5,68.2,65.4,93,70,48,30.17,30.10,10,5,18,0.00
2013-7-17,90.5,81.2,70.3,72.4,68.9,66.5,88,68,46,30.21,30.06,11,5,19,0.00
2013-7-18,90.5,81.5,72.4,71.0,69.3,67.8,88,68,49,30.07,29.78,16,8,29,0.00
2013-7-19,82.4,78.3,67.9,70.1,64.3,55.9,85,63,41,29.87,29.72,19,8,33,0.11
2013-7-20,80.8,71.9,61.1,65.7,61.5,57.5,89,71,50,29.93,29.83,8,2,14,0.00
2013-7-21,83.2,74.9,67.2,68.8,64.3,56.2,87,71,46,29.88,29.71,11,4,17,0.00
2013-7-22,87.3,74.7,65.5,74.3,66.9,58.5,97,78,57,29.84,29.65,16,8,27,0.02
2013-7-23,72.2,66.2,59.5,58.9,56.8,53.8,89,72,55,29.99,29.82,11,5,17,0.00
2013-7-24,78.5,68.7,57.6,59.8,57.2,54.2,91,69,48,30.05,29.96,10,3,16,0.00
2013-7-25,84.2,71.6,60.9,67.9,62.4,56.4,90,74,55,29.98,29.85,13,5,21,0.00
2013-7-26,67.5,62.7,55.6,62.5,54.0,48.8,94,74,54,30.07,29.90,20,12,30,0.00
2013-7-27,65.7,57.4,46.4,52.0,46.4,42.1,94,69,46,30.10,29.99,15,8,23,0.00
2013-7-28,71.0,60.3,47.1,53.9,47.9,43.3,90,66,45,30.05,29.99,16,6,24,0.00
2013-7-29,74.5,64.8,53.9,58.3,52.5,46.3,84,65,48,30.08,30.01,11,5,18,0.00
2013-7-30,73.2,66.8,61.2,65.3,61.9,56.6,97,85,74,30.06,30.01,11,3,11,0.00
2013-7-31,70.5,62.0,57.1,64.0,59.6,55.9,98,92,75,30.10,30.02,14,2,14,0.01
2013-8-1,84.2,70.5,58.6,66.8,61.4,55.8,94,75,51,30.05,29.84,14,4,0,0.00
2013-8-2,70.4,66.1,59.9,64.9,59.9,56.6,92,81,62,30.03,29.85,8,2,0,0.10
2013-8-3,75.1,64.9,52.4,57.7,54.1,49.0,96,71,41,30.18,30.02,9,3,0,0.01
2013-8-4,76.8,67.4,56.6,60.5,55.9,51.0,90,68,50,30.19,29.95,11,4,0,0.00
2013-8-5,82.9,71.8,65.4,69.3,64.6,58.0,96,79,56,29.96,29.78,11,5,0,0.00
2013-8-6,85.7,73.1,60.8,67.4,62.8,56.1,95,73,37,29.82,29.71,19,5,19,0.00
2013-8-7,74.5,66.7,60.4,65.7,58.5,53.4,95,76,57,30.00,29.77,21,7,21,0.00
2013-8-8,74.7,64.8,57.7,65.0,58.2,52.3,93,80,70,30.03,29.93,14,4,14,0.01
2013-8-9,76.0,68.5,60.4,64.5,58.7,54.1,97,73,49,30.11,29.97,19,6,19,0.00
2013-8-10,76.5,65.5,54.5,64.7,58.2,51.8,94,79,56,30.17,30.03,16,2,16,0.14
2013-8-11,72.5,66.1,61.4,67.2,63.3,59.7,96,91,81,30.07,29.97,16,4,16,1.07
2013-8-12,75.7,66.8,57.5,62.2,57.9,52.6,98,76,46,30.06,29.99,17,5,17,0.01
2013-8-13,73.8,64.7,55.6,58.9,54.0,47.6,94,70,43,30.16,30.05,17,4,17,0.00
2013-8-14,73.0,63.3,53.5,59.7,53.4,49.0,92,71,50,30.18,30.08,15,3,15,0.00
2013-8-15,69.0,62.3,53.9,58.7,56.6,51.9,95,82,65,30.13,30.06,17,4,17,0.00
2013-8-16,72.9,63.1,52.6,59.0,55.8,51.1,96,78,58,30.18,30.11,17,4,17,0.01
2013-8-17,78.3,67.0,55.5,58.4,55.5,51.3,86,68,48,30.17,30.07,20,5,20,0.00
2013-8-18,78.7,68.1,56.1,59.4,55.8,52.1,87,67,44,30.10,29.99,22,5,22,0.00
2013-8-19,84.1,73.1,63.5,69.7,64.8,58.1,89,76,60,30.01,29.84,22,6,22,0.00
2013-8-20,86.0,76.3,67.0,74.4,69.8,64.6,93,81,65,29.87,29.80,16,5,16,0.00
2013-8-21,83.6,75.7,71.3,74.3,70.6,67.5,92,85,71,29.93,29.80,16,4,16,0.00
2013-8-22,80.7,73.6,67.4,71.9,67.7,64.3,96,83,65,30.06,29.91,21,5,21,0.13
2013-8-23,82.5,73.5,64.5,73.1,68.3,62.1,96,84,72,30.06,29.94,23,7,23,0.00
2013-8-24,86.4,75.8,69.3,74.5,70.4,67.8,96,84,66,30.01,29.90,25,8,25,0.16
2013-8-25,90.2,81.4,74.0,75.8,72.7,69.7,87,76,60,29.99,29.90,26,8,26,0.00
2013-8-26,91.3,82.4,74.8,76.6,72.9,69.3,87,74,57,29.95,29.80,25,7,25,0.00
2013-8-27,79.7,77.4,74.9,72.4,69.1,67.2,79,76,72,29.81,29.75,20,9,20,0.00
2013-8-28,90.6,85.7,77.9,78.5,76.2,72.8,89,74,64,29.92,29.86,15,4,15,0.00
2013-8-29,90.5,80.5,69.2,72.9,68.9,64.4,87,69,45,29.93,29.80,20,5,20,0.00
2013-8-30,82.5,77.0,69.7,72.8,70.4,65.3,94,80,68,29.83,29.79,16,5,16,0.00
2013-8-31,88.5,74.8,62.9,70.3,66.2,61.1,97,77,46,29.83,29.71,34,3,34,0.07
2013-9-1,75.3,67.5,61.1,67.4,60.2,54.9,95,78,61,29.97,29.73,28,10,28,0.04
2013-9-2,71.8,61.1,49.3,55.5,52.3,47.9,97,75,47,30.08,29.97,14,5,14,0.00
2013-9-3,80.8,65.4,50.6,65.3,57.1,49.0,95,77,51,30.08,29.97,14,4,14,0.00
2013-9-4,87.7,75.0,62.3,67.1,63.5,59.3,91,70,43,30.07,30.00,14,4,14,0.00
2013-9-5,84.3,75.4,66.1,68.4,64.7,61.8,87,70,55,30.12,30.01,19,4,19,0.00
2013-9-6,89.5,77.0,66.0,70.4,66.3,62.1,89,71,51,30.04,29.81,25,7,25,0.00
2013-9-7,87.0,77.9,67.7,73.4,70.0,64.5,91,77,61,29.89,29.81,19,4,19,0.00
2013-9-8,75.5,71.0,67.1,70.9,67.8,65.6,96,90,81,29.92,29.79,22,6,22,0.00
2013-9-9,92.4,78.3,67.5,71.1,68.0,65.8,98,74,44,29.79,29.64,22,8,28,0.00
2013-9-10,78.9,72.6,63.4,69.0,64.9,60.8,97,78,55,29.96,29.75,14,3,14,0.00
2013-9-11,83.8,72.5,63.8,64.2,60.4,54.7,95,69,38,30.06,29.96,23,4,23,0.00
2013-9-12,72.5,65.8,54.8,55.6,50.6,47.1,84,59,43,30.20,30.06,26,8,26,0.00
2013-9-13,72.8,60.8,50.3,49.8,46.7,44.8,86,62,39,30.23,30.06,14,3,14,0.00
2013-9-14,70.2,60.6,48.6,55.7,49.1,43.6,84,67,48,30.06,29.81,24,7,24,0.01
2013-9-15,64.5,59.9,52.1,58.7,54.3,50.1,94,82,70,30.26,29.77,30,8,30,0.04
2013-9-16,67.1,55.7,45.3,52.3,49.4,44.2,96,81,55,30.36,30.20,16,5,16,0.01
2013-9-17,61.4,55.7,50.3,60.8,54.3,47.8,98,95,88,30.22,29.88,20,8,20,0.04
2013-9-18,87.5,73.9,61.5,71.1,67.4,60.8,99,82,56,29.88,29.61,25,7,25,0.00
2013-9-19,74.2,70.3,58.7,68.3,61.9,49.9,85,75,53,29.87,29.57,24,9,27,0.00
2013-9-20,59.9,53.2,45.8,51.4,46.0,41.0,92,78,57,29.99,29.87,26,9,26,0.00
2013-9-21,72.7,56.5,41.7,48.8,42.2,38.5,93,63,30,30.02,29.87,13,3,13,0.00
2013-9-22,80.0,63.9,49.7,55.3,49.8,44.0,85,63,38,29.89,29.75,28,9,28,0.00
2013-9-23,75.8,62.8,50.3,53.8,50.4,47.2,90,66,41,29.83,29.74,33,10,33,0.00
2013-9-24,73.2,60.8,52.7,56.8,52.6,48.3,87,75,55,29.90,29.82,15,4,15,0.00
2013-9-25,75.5,63.2,52.1,56.4,52.5,48.6,89,70,44,29.92,29.75,26,7,26,0.00
2013-9-26,83.8,69.5,57.5,61.9,58.7,54.1,95,71,44,29.81,29.71,34,12,34,0.00
2013-9-27,84.3,73.7,65.2,63.8,61.3,58.0,89,67,41,29.80,29.69,22,11,35,0.18
2013-9-28,70.8,59.6,50.0,61.9,50.9,41.3,94,74,47,29.97,29.58,28,10,28,0.19
2013-9-29,76.5,60.7,46.2,46.1,43.7,40.8,82,57,33,29.98,29.79,26,8,26,0.00
2013-9-30,80.1,66.4,56.3,53.1,49.3,45.1,72,56,35,29.79,29.58,25,9,25,0.00
2013-10-1,77.0,65.9,55.4,53.2,43.5,29.1,78,49,18,29.96,29.62,22,6,22,0.00
2013-10-2,80.0,66.7,51.7,63.8,46.8,32.6,74,50,27,29.98,29.75,31,7,31,0.00
2013-10-3,67.7,60.7,58.0,60.4,58.4,56.4,98,92,77,29.85,29.73,18,5,18,0.14
2013-10-4,68.0,59.6,54.6,63.7,58.0,54.0,99,95,82,29.88,29.66,22,7,22,0.38
2013-10-5,60.2,46.3,38.8,59.1,38.5,34.9,96,75,56,29.81,29.70,26,8,26,0.00
2013-10-6,48.1,44.5,40.8,46.2,42.2,37.9,97,92,80,29.95,29.74,33,9,33,0.16
2013-10-7,71.7,54.7,40.8,49.6,43.4,37.5,90,68,40,30.01,29.94,12,4,12,0.00
2013-10-8,77.5,62.4,49.7,48.0,44.1,41.5,74,54,30,29.94,29.79,32,9,32,0.00
2013-10-9,76.0,62.5,52.4,52.6,48.6,46.3,83,62,41,29.98,29.90,24,8,24,0.00
2013-10-10,78.5,64.5,52.7,54.2,49.5,46.3,80,60,37,29.98,29.77,28,9,28,0.00
2013-10-11,71.7,61.1,50.1,59.6,52.6,42.4,87,74,49,29.78,29.53,33,12,33,0.00
2013-10-12,61.7,51.0,42.0,42.4,34.1,24.0,83,56,26,30.25,29.75,32,10,32,0.00
2013-10-13,62.7,48.7,33.7,38.8,31.6,27.8,80,54,32,30.44,30.25,12,2,12,0.00
2013-10-14,55.3,47.6,43.7,47.9,38.4,32.3,98,71,53,30.35,29.74,32,9,32,0.78
2013-10-15,53.5,46.3,42.3,52.4,44.8,41.0,97,95,93,29.93,29.64,28,13,28,0.03
2013-10-16,52.6,44.3,38.2,41.3,37.4,28.8,96,79,42,30.03,29.93,25,8,25,0.01
2013-10-17,57.7,43.1,34.9,42.9,35.5,31.2,90,76,42,29.98,29.82,28,8,28,0.00
2013-10-18,49.7,41.3,32.2,35.1,30.6,24.1,89,68,39,30.07,29.92,21,7,21,0.00
2013-10-19,51.4,40.1,31.8,40.6,32.2,25.9,93,75,46,29.92,29.76,30,8,30,0.01
2013-10-20,55.2,42.0,34.4,42.0,34.4,27.3,89,75,56,29.96,29.67,35,11,35,0.00
2013-10-22,38.4,36.4,34.1,28.2,26.4,24.8,74,67,61,30.12,30.03,20,10,20,0.03
2013-10-23,37.3,33.8,30.8,32.6,28.0,23.5,93,80,62,30.19,30.08,23,7,23,0.03
2013-10-24,46.6,36.7,30.0,31.6,28.2,24.3,90,73,43,30.39,30.19,25,8,25,0.00
2013-10-25,58.5,41.5,27.0,39.2,31.9,23.5,91,71,48,30.40,29.95,35,9,35,0.00
2013-10-26,46.7,39.9,30.9,37.2,29.1,24.6,80,66,48,30.18,29.94,29,10,29,0.00
2013-10-27,59.7,42.7,28.7,38.2,31.3,23.7,83,66,43,30.11,29.83,20,7,20,0.00
2013-10-28,43.1,37.3,31.7,33.4,30.2,27.9,89,76,66,30.36,30.08,27,10,27,0.00
2013-10-29,49.1,40.6,34.4,45.2,36.6,29.1,97,86,73,30.33,30.03,19,6,19,0.12
2013-10-30,52.1,46.9,40.4,51.6,46.3,39.9,98,98,97,30.03,29.72,16,3,16,0.07
2013-10-31,41.9,38.4,35.0,39.8,36.7,33.8,100,94,86,29.72,29.47,20,7,20,0.01
2013-11-1,53.7,43.2,36.7,40.9,37.7,34.3,93,82,58,29.92,29.51,33,11,33,0.00
2013-11-2,52.4,42.7,31.8,38.9,34.9,29.9,94,75,50,30.12,29.92,20,7,20,0.00
2013-11-3,54.7,44.4,33.2,37.5,32.9,29.5,88,66,40,30.08,29.76,38,12,38,0.00
2013-11-4,50.4,43.4,31.4,42.4,36.4,27.8,91,77,58,30.17,29.78,23,7,23,0.01
2013-11-5,37.9,32.7,27.8,32.3,29.9,25.4,96,90,77,30.22,30.00,27,8,27,0.12
2013-11-6,34.7,30.1,26.3,30.2,26.3,21.9,96,86,73,30.26,30.05,25,8,25,0.12
2013-11-7,35.4,30.2,25.6,28.7,26.2,23.8,96,85,69,30.37,30.25,17,7,17,0.01
2013-11-8,51.7,40.1,27.5,41.7,32.0,21.5,82,73,56,30.27,29.68,34,10,34,0.01
2013-11-9,45.4,40.0,29.5,38.5,33.3,25.1,85,77,65,30.34,29.78,32,12,32,0.00
2013-11-10,41.4,32.6,23.2,31.7,26.7,20.4,90,79,64,30.42,30.13,16,5,16,0.00
2013-11-11,40.0,21.6,11.2,34.6,16.7,7.0,99,81,72,30.81,30.13,34,16,34,0.00
2013-11-12,27.9,16.1,3.3,15.0,9.0,0.1,87,74,55,30.92,30.56,19,6,19,0.00
2013-11-13,51.1,36.2,21.8,31.9,24.3,12.0,73,63,46,30.56,29.95,33,10,33,0.00
2013-11-14,53.4,39.3,32.3,44.0,33.9,27.8,91,81,65,29.95,29.84,16,4,16,0.01
2013-11-15,55.1,40.2,29.9,42.4,34.4,28.5,95,81,54,29.88,29.60,20,5,20,0.00
2013-11-16,58.1,45.1,37.1,51.8,40.2,29.5,97,84,56,29.60,29.22,26,8,26,0.01
2013-11-17,48.1,41.2,37.1,38.8,35.2,30.4,94,80,64,29.95,29.35,32,10,32,0.02
2013-11-18,41.8,33.3,27.1,31.1,26.6,23.6,90,77,57,30.27,29.96,21,7,21,0.00
2013-11-19,55.3,41.5,29.3,35.7,30.4,25.0,88,67,44,30.25,29.87,32,12,32,0.00
2013-11-20,50.2,42.5,33.7,35.4,32.7,29.4,93,69,55,30.00,29.80,24,8,24,0.00
2013-11-21,34.0,22.5,15.7,32.2,19.2,12.7,95,87,78,30.62,30.00,38,19,38,0.00
2013-11-22,30.0,18.7,7.1,14.4,9.1,1.1,86,67,44,30.74,30.60,33,10,33,0.00
2013-11-23,15.8,9.3,3.2,4.4,2.0,-0.3,96,73,53,30.95,30.73,32,8,32,0.00
2013-11-24,32.6,19.0,6.4,17.4,9.9,-0.0,78,68,50,30.82,30.15,29,10,29,0.00
2013-11-25,40.8,31.4,25.5,28.9,22.8,17.1,82,71,57,30.19,30.06,24,10,27,0.00
2013-11-26,30.9,21.2,12.2,22.5,11.1,5.7,80,66,48,30.46,30.17,36,17,36,0.00
2013-11-27,25.4,15.8,4.2,12.3,8.4,0.7,96,73,53,30.47,30.07,22,6,22,0.00
2013-11-28,26.1,19.5,13.0,17.0,12.6,8.4,84,75,64,30.57,30.09,26,9,26,0.00
2013-11-29,35.6,23.0,9.8,23.9,16.0,5.1,84,75,59,30.57,30.17,23,6,23,0.00
2013-11-30,45.4,33.6,24.8,31.4,26.3,21.8,89,75,55,30.21,30.09,19,7,19,0.00
2013-12-1,34.8,28.7,23.2,26.0,23.3,19.4,88,80,69,30.21,29.91,12,4,12,0.00
2013-12-2,45.9,35.1,28.2,36.6,30.4,25.6,92,83,70,29.92,29.54,20,6,20,0.00
2013-12-3,33.7,31.3,29.3,32.9,30.3,26.2,98,96,86,29.75,29.57,19,8,19,0.04
2013-12-4,30.0,22.8,7.8,29.5,21.4,4.2,98,94,84,29.94,29.59,29,9,29,0.00
2013-12-5,7.9,3.3,-3.2,4.3,-1.1,-8.1,85,82,78,30.52,29.95,22,11,29,0.00
2013-12-6,1.1,-5.1,-10.1,-1.9,-9.7,-14.3,92,80,76,30.83,30.50,17,6,17,0.00
2013-12-7,6.8,-2.7,-11.7,2.1,-7.5,-15.5,87,80,69,30.88,30.62,11,3,11,0.00
2013-12-8,12.3,8.6,1.5,9.4,5.8,-1.2,90,88,87,30.63,30.15,13,6,17,0.00
2013-12-9,12.2,-1.0,-8.0,7.0,-5.7,-12.5,88,80,71,30.31,30.00,27,8,27,0.00
2013-12-10,18.1,10.9,2.5,13.9,6.6,-2.7,92,83,74,30.37,29.97,39,9,39,0.00
2013-12-11,13.7,-1.7,-9.4,10.1,-6.4,-13.5,89,80,75,30.72,30.37,23,8,23,0.00
2013-12-12,24.8,16.3,6.3,19.4,11.9,1.5,90,83,73,30.47,30.14,24,5,24,0.00
2013-12-13,21.1,14.7,8.7,17.6,11.9,6.4,92,88,85,30.28,30.09,22,7,22,0.00
2013-12-14,13.1,9.7,5.5,10.3,6.2,2.0,92,85,81,30.30,30.22,18,8,18,0.00
2013-12-15,8.0,5.5,2.6,4.1,1.3,-2.4,87,83,77,30.24,30.15,14,5,14,0.00
2013-12-16,28.6,15.3,6.7,25.1,12.4,3.4,91,88,84,30.17,30.06,19,6,19,0.00
2013-12-17,31.4,25.1,14.0,27.7,19.9,10.7,90,81,71,30.22,30.11,31,11,31,0.00
2013-12-18,37.9,29.6,14.4,30.7,23.9,11.0,89,79,71,30.13,29.75,23,6,23,0.00
2013-12-19,28.9,15.6,12.1,25.0,12.3,9.0,89,87,84,30.04,29.85,26,13,28,0.01
2013-12-20,13.5,11.5,8.4,11.4,8.7,5.7,91,88,86,30.07,29.94,21,7,21,0.00
2013-12-21,18.6,14.0,8.5,16.9,11.9,6.2,93,91,89,30.03,29.92,21,6,21,0.00
2013-12-22,11.0,5.5,-3.4,8.9,1.8,-8.0,91,84,80,30.45,30.00,25,12,25,0.00
2013-12-23,-1.5,-7.1,-11.6,-7.7,-14.2,-17.7,90,71,57,30.69,30.45,25,9,25,0.00
2013-12-24,16.7,3.6,-13.5,14.7,-1.6,-18.4,92,78,61,30.65,30.25,28,7,28,0.00
2013-12-25,30.0,21.6,16.4,27.1,18.6,13.7,93,88,74,30.29,30.18,27,8,27,0.00
2013-12-26,34.0,25.6,17.0,27.4,21.3,14.6,91,84,75,30.25,30.11,11,4,15,0.00
2013-12-27,40.8,29.9,16.0,32.5,25.7,14.2,100,85,68,30.25,30.04,24,6,24,0.00
2013-12-28,51.5,31.4,4.7,34.5,25.0,1.4,97,78,48,30.13,29.69,43,12,43,0.00
2013-12-29,5.0,-4.8,-8.7,2.0,-12.1,-17.6,87,71,57,30.45,30.13,40,14,40,0.00
2013-12-30,11.8,3.1,-7.4,8.3,-1.2,-12.8,89,82,71,30.42,30.18,18,5,18,0.00
2013-12-31,3.2,0.5,-4.2,-0.5,-3.2,-8.1,86,84,83,30.43,30.33,18,5,18,0.00
2014-1-1,-0.9,-3.6,-6.2,-6.2,-8.1,-10.3,83,80,77,30.56,30.41,16,7,16,0.00
2014-1-2,-1.9,-7.2,-12.1,-6.8,-11.9,-16.0,84,80,68,30.63,30.49,10,4,10,0.00